Flag for Germany Weather past 2 weeks in Weiden in der Oberpfalz, Bavaria, Germany

Now
62 °F

Passing clouds.


Feels Like: 62 °F
Forecast: 58 / 92 °F
Wind: 1 mph from South

Location: Weiden

Current Time: Aug 5, 2015 at 2:35:09 AM

Latest Report: Aug 5, 2015 at 2:00 AM


Visibility: 34 mi

Pressure: 30.09 "Hg

Humidity: 85%

Dew point: 58 °F

Location of Weiden in der OberpfalzLocation

Historic Weather in Weiden in der Oberpfalz — Graph

°F

Weiden in der Oberpfalz temperature yesterday

Maximum temperature yesterday: 89 °F (at 5:00 PM)
Minimum temperature yesterday: 59 °F (at 5:00 AM)
Average temperature yesterday: 74 °F

Past Weeks' High & Low Weather Summary

 TemperatureHumidityPressure
High96 °F (Jul 22, 5:00 PM)97% (Jul 29, 10:00 PM)30.13 "Hg (Jul 29, 10:00 PM)
Low45 °F (Jul 31, 5:00 AM)23% (Jul 22, 5:00 PM)29.65 "Hg (Jul 25, 2:00 AM)
Average67 °F61%29.91 "Hg
* Reported Jul 21 1:00 AM — Aug 5 1:00 AM, Weiden in der Oberpfalz, Weather by CustomWeather, © 2015

Note: Actual official high and low records may vary slightly from our data, if they occured in-between our weather recording intervals... More about our weather records

Advertising

Weiden in der Oberpfalz weather history for previous 24 hours

 ConditionsComfort  
Time TempWeatherWind HumidityBarometerVisibility
1:00 AM
Wed, Aug 5
65 °FPassing clouds.1 mph79%30.08 "Hg37 mi
11:00 PM
Tue, Aug 4
67 °FClear.2 mph71%30.04 "Hg43 mi
10:00 PM70 °FPassing clouds.5 mph64%30.02 "Hg43 mi
9:00 PM71 °FPassing clouds.3 mph63%29.99 "Hg25 mi
8:00 PM73 °FOvercast.5 mph60%29.96 "Hg25 mi
7:00 PM78 °FScattered clouds.6 mph53%29.90 "Hg18 mi
6:00 PM87 °FPassing clouds.5 mph31%29.84 "Hg25 mi
5:00 PM89 °FSunny.6 mph25%29.84 "Hg16 mi
4:00 PM88 °FSunny.2 mph28%29.85 "Hg15 mi
3:00 PM86 °FPassing clouds.5 mph32%29.86 "Hg25 mi
2:00 PM86 °FSunny.3 mph33%29.86 "Hg19 mi
1:00 PM85 °FSunny.5 mph37%29.87 "Hg15 mi
12:00 PM83 °FSunny.3 mph40%29.88 "Hg18 mi
11:00 AM80 °FSunny.2 mph46%29.90 "Hg15 mi
10:00 AM76 °FSunny.2 mph53%29.93 "Hg16 mi
9:00 AM70 °FSunny.1 mph62%29.95 "Hg16 mi
8:00 AM63 °FSunny.1 mph73%29.99 "Hg11 mi
7:00 AM61 °FSunny.1 mph83%30.00 "Hg9 mi
5:00 AM59 °FClear.1 mph89%30.01 "Hg10 mi
4:00 AM61 °FClear.No wind86%30.02 "Hg11 mi
3:00 AM61 °FClear.1 mph84%30.02 "Hg12 mi
2:00 AM64 °FClear.1 mph79%30.02 "Hg14 mi
Weather by CustomWeather, © 2015

See weather overviewHow to use our weather pages